When you browse on this site, cookies collect data to enhance your experience and personalize the content and advertising you see.
Visit our Privacy Policy to learn more. By continuing to use the site, you agree to this use of cookies and data.
  • In Portugal
  • List of Countries
  • For 7 days
  • Water Temperature
  • Satellite Maps
  • Weather Map
  • Weather Widgets
  • user-avatar
    Login

    Hourly Weather Novoazovsk

    Today, 25 May, Saturday

    Time Temperature Precipitation Wind Pressure Humidity
    00:00 +18°C° 0 mm 2 mps 755 mmHg 66%
    01:00 +18°C° 0.1 mm 3 mps 755 mmHg 68%
    02:00 +17°C° 0.1 mm 3 mps 755 mmHg 70%
    03:00 +17°C° 0.1 mm 3 mps 755 mmHg 73%
    04:00 +17°C° 1 mm 3 mps 755 mmHg 78%
    05:00 +17°C° 1 mm 3 mps 755 mmHg 83%
    06:00 +17°C° 1 mm 3 mps 755 mmHg 87%
    07:00 +18°C° 1.1 mm 3 mps 755 mmHg 85%
    08:00 +20°C° 1.1 mm 4 mps 755 mmHg 82%
    09:00 +21°C° 1.1 mm 4 mps 755 mmHg 79%
    10:00 +22°C° 0.3 mm 4 mps 754 mmHg 74%
    11:00 +23°C° 0.3 mm 5 mps 754 mmHg 69%
    12:00 +24°C° 0.3 mm 6 mps 754 mmHg 65%
    13:00 +23°C° 0.1 mm 5 mps 754 mmHg 68%
    14:00 +22°C° 0.1 mm 5 mps 754 mmHg 72%
    15:00 +22°C° 0.1 mm 5 mps 754 mmHg 76%
    16:00 +21°C° 0.1 mm 5 mps 754 mmHg 79%
    17:00 +20°C° 0.1 mm 4 mps 754 mmHg 81%
    18:00 +20°C° 0.1 mm 4 mps 753 mmHg 83%
    19:00 +19°C° 0 mm 4 mps 754 mmHg 85%
    20:00 +18°C° 0 mm 4 mps 754 mmHg 88%
    21:00 +17°C° 0 mm 5 mps 754 mmHg 90%
    22:00 +17°C° 0.1 mm 5 mps 754 mmHg 89%
    23:00 +16°C° 0.1 mm 5 mps 754 mmHg 89%

    Tomorrow, 26 May, Sunday

    Time Temperature Precipitation Wind Pressure Humidity
    00:00 +16°C° 0.1 mm 6 mps 754 mmHg 88%
    01:00 +16°C° 0 mm 6 mps 754 mmHg 88%
    02:00 +16°C° 0 mm 6 mps 754 mmHg 88%
    03:00 +16°C° 0 mm 6 mps 754 mmHg 87%
    04:00 +16°C° 0.1 mm 6 mps 755 mmHg 88%
    05:00 +16°C° 0.1 mm 6 mps 755 mmHg 88%
    06:00 +16°C° 0.1 mm 6 mps 755 mmHg 89%
    07:00 +17°C° 0 mm 6 mps 755 mmHg 85%
    08:00 +19°C° 0 mm 6 mps 755 mmHg 82%
    09:00 +20°C° 0 mm 6 mps 755 mmHg 78%
    10:00 +21°C° 0 mm 6 mps 755 mmHg 74%
    11:00 +21°C° 0 mm 7 mps 755 mmHg 71%
    12:00 +22°C° 0 mm 7 mps 755 mmHg 67%
    13:00 +22°C° 0 mm 7 mps 755 mmHg 67%
    14:00 +22°C° 0 mm 7 mps 755 mmHg 67%
    15:00 +22°C° 0 mm 7 mps 755 mmHg 67%
    16:00 +23°C° 0.6 mm 7 mps 755 mmHg 68%
    17:00 +23°C° 0.6 mm 6 mps 755 mmHg 69%
    18:00 +23°C° 0.6 mm 6 mps 755 mmHg 70%
    19:00 +22°C° 0.9 mm 6 mps 755 mmHg 73%
    20:00 +21°C° 0.9 mm 6 mps 756 mmHg 76%
    21:00 +20°C° 0.9 mm 5 mps 756 mmHg 79%
    22:00 +20°C° 0 mm 5 mps 757 mmHg 81%
    23:00 +19°C° 0 mm 5 mps 757 mmHg 84%

    Day after tomorrow, 27 May, Monday

    Time Temperature Precipitation Wind Pressure Humidity
    00:00 +19°C° 0 mm 5 mps 757 mmHg 87%
    01:00 +18°C° 0 mm 4 mps 758 mmHg 88%
    02:00 +18°C° 0 mm 4 mps 758 mmHg 89%
    03:00 +17°C° 0 mm 4 mps 759 mmHg 91%
    04:00 +18°C° 0 mm 4 mps 759 mmHg 90%
    05:00 +18°C° 0 mm 4 mps 759 mmHg 88%
    06:00 +18°C° 0 mm 4 mps 760 mmHg 87%
    07:00 +20°C° 0 mm 3 mps 760 mmHg 80%
    08:00 +21°C° 0 mm 3 mps 761 mmHg 73%
    09:00 +24°C° 0 mm 3 mps 761 mmHg 66%
    10:00 +25°C° 0 mm 3 mps 761 mmHg 61%
    11:00 +26°C° 0 mm 3 mps 762 mmHg 56%
    12:00 +27°C° 0 mm 3 mps 762 mmHg 51%
    13:00 +27°C° 0 mm 4 mps 762 mmHg 52%
    14:00 +27°C° 0 mm 4 mps 762 mmHg 53%
    15:00 +27°C° 0 mm 5 mps 762 mmHg 54%
    16:00 +27°C° 0 mm 5 mps 762 mmHg 56%
    17:00 +26°C° 0 mm 5 mps 762 mmHg 58%
    18:00 +26°C° 0 mm 5 mps 762 mmHg 61%
    19:00 +23°C° 0 mm 5 mps 762 mmHg 66%
    20:00 +22°C° 0 mm 4 mps 763 mmHg 71%
    21:00 +20°C° 0 mm 4 mps 763 mmHg 76%
    22:00 +20°C° 0 mm 4 mps 763 mmHg 77%
    23:00 +20°C° 0 mm 3 mps 763 mmHg 77%

    28 May, Tuesday

    Time Temperature Precipitation Wind Pressure Humidity
    00:00 +19°C° 0 mm 3 mps 763 mmHg 77%
    01:00 +19°C° 0 mm 2 mps 763 mmHg 77%
    02:00 +19°C° 0 mm 2 mps 763 mmHg 78%
    03:00 +19°C° 0 mm 2 mps 763 mmHg 78%
    04:00 +20°C° 0 mm 1 mps 763 mmHg 78%
    05:00 +20°C° 0 mm 1 mps 764 mmHg 77%
    06:00 +19°C° 0 mm 0 mps 764 mmHg 77%
    07:00 +22°C° 0 mm 1 mps 764 mmHg 71%
    08:00 +24°C° 0 mm 1 mps 764 mmHg 66%
    09:00 +25°C° 0 mm 1 mps 764 mmHg 60%
    10:00 +26°C° 0 mm 2 mps 764 mmHg 58%
    11:00 +27°C° 0 mm 2 mps 764 mmHg 55%
    12:00 +28°C° 0 mm 2 mps 764 mmHg 53%
    13:00 +28°C° 0 mm 1 mps 764 mmHg 51%
    14:00 +28°C° 0 mm 1 mps 764 mmHg 50%
    15:00 +28°C° 0 mm 1 mps 763 mmHg 49%
    16:00 +28°C° 0 mm 1 mps 763 mmHg 50%
    17:00 +28°C° 0 mm 1 mps 763 mmHg 51%
    18:00 +28°C° 0 mm 1 mps 763 mmHg 52%
    19:00 +26°C° 0 mm 2 mps 763 mmHg 56%
    20:00 +25°C° 0 mm 2 mps 763 mmHg 59%
    21:00 +22°C° 0 mm 3 mps 763 mmHg 62%
    22:00 +22°C° 0 mm 3 mps 763 mmHg 64%
    23:00 +22°C° 0 mm 3 mps 763 mmHg 65%

    29 May, Wednesday

    Time Temperature Precipitation Wind Pressure Humidity
    00:00 +22°C° 0 mm 3 mps 763 mmHg 67%
    01:00 +21°C° 0 mm 3 mps 763 mmHg 69%
    02:00 +21°C° 0 mm 3 mps 763 mmHg 72%
    03:00 +20°C° 0 mm 3 mps 762 mmHg 75%
    04:00 +20°C° 0 mm 3 mps 763 mmHg 76%
    05:00 +20°C° 0 mm 3 mps 763 mmHg 77%
    06:00 +20°C° 0 mm 3 mps 763 mmHg 78%
    07:00 +22°C° 0 mm 4 mps 763 mmHg 72%
    08:00 +25°C° 0 mm 4 mps 763 mmHg 65%
    09:00 +26°C° 0 mm 5 mps 763 mmHg 59%
    10:00 +27°C° 0 mm 5 mps 762 mmHg 57%
    11:00 +28°C° 0 mm 5 mps 762 mmHg 54%
    12:00 +28°C° 0 mm 5 mps 762 mmHg 52%
    13:00 +29°C° 0 mm 5 mps 762 mmHg 51%
    14:00 +29°C° 0 mm 5 mps 762 mmHg 51%
    15:00 +29°C° 0 mm 4 mps 761 mmHg 50%
    16:00 +29°C° 0 mm 4 mps 761 mmHg 52%
    17:00 +29°C° 0 mm 4 mps 761 mmHg 54%
    18:00 +28°C° 0 mm 4 mps 761 mmHg 55%
    19:00 +27°C° 0 mm 4 mps 761 mmHg 59%
    20:00 +26°C° 0 mm 4 mps 761 mmHg 63%
    21:00 +23°C° 0 mm 4 mps 761 mmHg 67%
    22:00 +23°C° 0 mm 4 mps 761 mmHg 68%
    23:00 +22°C° 0 mm 3 mps 761 mmHg 68%

    30 May, Thursday

    Time Temperature Precipitation Wind Pressure Humidity
    00:00 +21°C° 0 mm 3 mps 761 mmHg 68%
    01:00 +21°C° 0 mm 4 mps 761 mmHg 70%
    02:00 +21°C° 0 mm 4 mps 761 mmHg 71%
    03:00 +20°C° 0 mm 4 mps 761 mmHg 72%
    04:00 +20°C° 0 mm 4 mps 761 mmHg 73%
    05:00 +20°C° 0 mm 4 mps 761 mmHg 74%
    06:00 +20°C° 0 mm 4 mps 761 mmHg 75%
    07:00 +22°C° 0 mm 4 mps 761 mmHg 69%
    08:00 +23°C° 0 mm 4 mps 761 mmHg 63%
    09:00 +26°C° 0 mm 4 mps 761 mmHg 56%
    10:00 +28°C° 0 mm 4 mps 761 mmHg 52%
    11:00 +29°C° 0 mm 4 mps 760 mmHg 48%
    12:00 +30°C° 0 mm 4 mps 760 mmHg 43%
    13:00 +31°C° 0 mm 3 mps 760 mmHg 42%
    14:00 +31°C° 0 mm 3 mps 760 mmHg 41%
    15:00 +33°C° 0 mm 3 mps 760 mmHg 40%
    16:00 +31°C° 0 mm 3 mps 760 mmHg 42%
    17:00 +31°C° 0 mm 3 mps 759 mmHg 45%
    18:00 +31°C° 0 mm 2 mps 759 mmHg 47%
    19:00 +29°C° 0 mm 2 mps 759 mmHg 51%
    20:00 +27°C° 0 mm 2 mps 759 mmHg 54%
    21:00 +26°C° 0 mm 2 mps 760 mmHg 57%
    22:00 +25°C° 0 mm 2 mps 759 mmHg 59%
    23:00 +25°C° 0 mm 3 mps 759 mmHg 60%
    Show more